This is the latest recevied weather packets stored in our database for station/object KD4MBW. If no packets are shown the sender has not sent any weather packets the latest 10 day(s).
| Time | Temp. | Humidity | Pressure | Rain* | Wind** | Luminosity | Snow |
|---|---|---|---|---|---|---|---|
| 1778071017 | 20° C | 99% | 1015.7 hPa | 0 mm | - | 77 W/m² | - |
| 1778070716 | 20° C | 99% | 1015.6 hPa | 0 mm | - | 112 W/m² | - |
| 1778070412 | 20° C | 99% | 1015.3 hPa | 0 mm | - | 106 W/m² | - |
| 1778070110 | 19.44° C | 99% | 1015.5 hPa | 0 mm | - | 110 W/m² | - |
| 1778069808 | 19.44° C | 99% | 1015.3 hPa | 0 mm | - | 63 W/m² | - |
| 1778069503 | 19.44° C | 99% | 1015 hPa | 0 mm | - | 54 W/m² | - |
| 1778069202 | 19.44° C | 99% | 1015 hPa | 0 mm | - | 58 W/m² | - |
| 1778068898 | 18.89° C | 99% | 1014.9 hPa | 0 mm | - | 57 W/m² | - |
| 1778068597 | 18.89° C | 99% | 1014.9 hPa | 0 mm | - | 43 W/m² | - |
| 1778068295 | 18.89° C | 99% | 1014.8 hPa | 0 mm | - | 45 W/m² | - |
| 1778067992 | 18.89° C | 99% | 1014.7 hPa | 0 mm | - | 42 W/m² | - |
| 1778067690 | 18.89° C | 99% | 1014.6 hPa | 0 mm | - | 30 W/m² | - |
| 1778067388 | 18.89° C | 99% | 1014.8 hPa | 0 mm | - | 21 W/m² | - |
| 1778067085 | 18.89° C | 99% | 1014.8 hPa | 0 mm | - | 15 W/m² | - |
| 1778066781 | 18.89° C | 99% | 1014.4 hPa | 0 mm | - | 15 W/m² | - |
| 1778066479 | 18.89° C | 99% | 1014.4 hPa | 0 mm | - | 13 W/m² | - |
| 1778066176 | 18.89° C | 99% | 1014.6 hPa | 0 mm | - | 10 W/m² | - |
| 1778065874 | 18.89° C | 99% | 1014.2 hPa | 0 mm | - | 8 W/m² | - |
| 1778065571 | 19.44° C | 99% | 1014.3 hPa | 0 mm | - | 5 W/m² | - |
| 1778065269 | 18.89° C | 99% | 1014.3 hPa | 0 mm | - | 3 W/m² | - |
| 1778064965 | 18.89° C | 99% | 1014.1 hPa | 0 mm | - | 2 W/m² | - |
| 1778064662 | 19.44° C | 99% | 1014.1 hPa | 0 mm | - | 1 W/m² | - |
| 1778064360 | 18.89° C | 99% | 1014.3 hPa | 0 mm | - | 1 W/m² | - |
| 1778064057 | 18.89° C | 99% | 1014.1 hPa | 0 mm | - | 0 W/m² | - |
| 1778063754 | 19.44° C | 99% | 1014.2 hPa | 0 mm | - | 0 W/m² | - |
* Rain latest hour (hover to see other rain measurements)
** Current wind speed in m/s (hover to see current wind gust speed)